Météo par heure à Aliwal North

Ce jour, 31 Octobre, Samedi

Heure Température Précipitation Vent Pression Humidité
00:00 +15°C° 0.1 mm 4 m/s 656 mmHg 77%
01:00 +15°C° 0.1 mm 4 m/s 655 mmHg 78%
02:00 +15°C° 0.1 mm 4 m/s 655 mmHg 78%
03:00 +14°C° 0.1 mm 3 m/s 655 mmHg 80%
04:00 +14°C° 0.1 mm 3 m/s 655 mmHg 82%
05:00 +14°C° 0.1 mm 2 m/s 654 mmHg 84%
06:00 +15°C° 0.4 mm 2 m/s 655 mmHg 81%
07:00 +16°C° 0.4 mm 2 m/s 655 mmHg 78%
08:00 +17°C° 0.4 mm 2 m/s 656 mmHg 74%
09:00 +18°C° 1.4 mm 2 m/s 656 mmHg 72%
10:00 +18°C° 1.4 mm 3 m/s 656 mmHg 70%
11:00 +19°C° 1.4 mm 3 m/s 656 mmHg 68%
12:00 +19°C° 1.4 mm 4 m/s 656 mmHg 66%
13:00 +20°C° 1.4 mm 5 m/s 656 mmHg 64%
14:00 +20°C° 1.4 mm 7 m/s 655 mmHg 62%
15:00 +19°C° 1.2 mm 5 m/s 655 mmHg 66%
16:00 +18°C° 1.2 mm 4 m/s 655 mmHg 71%
17:00 +17°C° 1.2 mm 2 m/s 654 mmHg 75%
18:00 +17°C° 0.7 mm 2 m/s 654 mmHg 78%
19:00 +16°C° 0.7 mm 2 m/s 654 mmHg 81%
20:00 +16°C° 0.7 mm 1 m/s 654 mmHg 85%
21:00 +16°C° 0.5 mm 3 m/s 654 mmHg 82%
22:00 +15°C° 0.5 mm 4 m/s 654 mmHg 79%
23:00 +15°C° 0.5 mm 6 m/s 654 mmHg 76%

Demain, 1 Novembre, Dimanche

Heure Température Précipitation Vent Pression Humidité
00:00 +15°C° 0 mm 4 m/s 653 mmHg 76%
01:00 +16°C° 0 mm 3 m/s 653 mmHg 76%
02:00 +15°C° 0 mm 2 m/s 652 mmHg 76%
03:00 +14°C° 0.7 mm 3 m/s 652 mmHg 79%
04:00 +14°C° 0.7 mm 4 m/s 652 mmHg 82%
05:00 +13°C° 0.7 mm 4 m/s 651 mmHg 84%
06:00 +13°C° 2.8 mm 5 m/s 651 mmHg 85%
07:00 +13°C° 2.8 mm 5 m/s 651 mmHg 86%
08:00 +13°C° 2.8 mm 5 m/s 651 mmHg 87%
09:00 +13°C° 7 mm 5 m/s 651 mmHg 88%
10:00 +13°C° 7 mm 5 m/s 650 mmHg 89%
11:00 +13°C° 7 mm 5 m/s 650 mmHg 90%
12:00 +14°C° 3.6 mm 5 m/s 650 mmHg 83%
13:00 +15°C° 3.6 mm 5 m/s 650 mmHg 75%
14:00 +16°C° 3.6 mm 6 m/s 650 mmHg 67%
15:00 +16°C° 0.5 mm 6 m/s 650 mmHg 69%
16:00 +16°C° 0.5 mm 6 m/s 650 mmHg 71%
17:00 +16°C° 0.5 mm 6 m/s 650 mmHg 74%
18:00 +15°C° 0.8 mm 5 m/s 650 mmHg 77%
19:00 +14°C° 0.8 mm 5 m/s 650 mmHg 81%
20:00 +13°C° 0.8 mm 4 m/s 650 mmHg 84%
21:00 +13°C° 0.1 mm 3 m/s 650 mmHg 85%
22:00 +14°C° 0.1 mm 2 m/s 650 mmHg 86%
23:00 +14°C° 0.1 mm 1 m/s 651 mmHg 87%

Après-demain, 2 Novembre, Lundi

Heure Température Précipitation Vent Pression Humidité
00:00 +14°C° 0 mm 1 m/s 650 mmHg 87%
01:00 +14°C° 0 mm 1 m/s 650 mmHg 87%
02:00 +13°C° 0 mm 1 m/s 650 mmHg 88%
03:00 +13°C° 0 mm 1 m/s 650 mmHg 89%
04:00 +13°C° 0 mm 1 m/s 650 mmHg 90%
05:00 +13°C° 0 mm 1 m/s 650 mmHg 91%
06:00 +14°C° 0 mm 1 m/s 650 mmHg 85%
07:00 +15°C° 0 mm 2 m/s 651 mmHg 79%
08:00 +16°C° 0 mm 2 m/s 651 mmHg 73%
09:00 +18°C° 0 mm 2 m/s 652 mmHg 66%
10:00 +19°C° 0 mm 3 m/s 652 mmHg 59%
11:00 +21°C° 0 mm 3 m/s 652 mmHg 52%
12:00 +22°C° 0 mm 4 m/s 652 mmHg 45%
13:00 +23°C° 0 mm 4 m/s 652 mmHg 39%
14:00 +26°C° 0 mm 4 m/s 652 mmHg 32%
15:00 +26°C° 0 mm 4 m/s 651 mmHg 30%
16:00 +26°C° 0 mm 4 m/s 651 mmHg 29%
17:00 +26°C° 0 mm 4 m/s 651 mmHg 27%
18:00 +24°C° 0 mm 3 m/s 651 mmHg 34%
19:00 +21°C° 0 mm 2 m/s 650 mmHg 40%
20:00 +18°C° 0 mm 0 m/s 650 mmHg 47%
21:00 +20°C° 0 mm 1 m/s 650 mmHg 47%
22:00 +19°C° 0 mm 1 m/s 650 mmHg 46%
23:00 +19°C° 0 mm 1 m/s 651 mmHg 46%

3 Novembre, Mardi

Heure Température Précipitation Vent Pression Humidité
00:00 +19°C° 0 mm 1 m/s 650 mmHg 49%
01:00 +18°C° 0 mm 1 m/s 650 mmHg 51%
02:00 +18°C° 0 mm 1 m/s 649 mmHg 54%
03:00 +16°C° 0 mm 1 m/s 649 mmHg 54%
04:00 +16°C° 0 mm 1 m/s 650 mmHg 54%
05:00 +16°C° 0 mm 1 m/s 650 mmHg 54%
06:00 +18°C° 0 mm 2 m/s 650 mmHg 50%
07:00 +20°C° 0 mm 3 m/s 651 mmHg 46%
08:00 +22°C° 0 mm 4 m/s 651 mmHg 41%
09:00 +25°C° 0 mm 5 m/s 652 mmHg 37%
10:00 +27°C° 0 mm 5 m/s 652 mmHg 33%
11:00 +29°C° 0 mm 6 m/s 652 mmHg 29%
12:00 +30°C° 0 mm 6 m/s 652 mmHg 28%
13:00 +30°C° 0 mm 6 m/s 651 mmHg 27%
14:00 +32°C° 0 mm 6 m/s 651 mmHg 26%
15:00 +30°C° 0 mm 4 m/s 650 mmHg 28%
16:00 +29°C° 0 mm 3 m/s 650 mmHg 29%
17:00 +29°C° 0 mm 1 m/s 650 mmHg 31%
18:00 +25°C° 1.5 mm 3 m/s 649 mmHg 47%
19:00 +21°C° 1.5 mm 5 m/s 649 mmHg 62%
20:00 +17°C° 1.5 mm 7 m/s 648 mmHg 77%
21:00 +17°C° 0 mm 7 m/s 649 mmHg 77%
22:00 +17°C° 0 mm 6 m/s 649 mmHg 76%
23:00 +17°C° 0 mm 6 m/s 650 mmHg 76%

4 Novembre, Mercredi

Heure Température Précipitation Vent Pression Humidité
00:00 +17°C° 0.3 mm 5 m/s 650 mmHg 79%
01:00 +16°C° 0.3 mm 5 m/s 649 mmHg 81%
02:00 +16°C° 0.3 mm 5 m/s 649 mmHg 84%
03:00 +17°C° 0.1 mm 4 m/s 649 mmHg 84%
04:00 +17°C° 0.1 mm 3 m/s 648 mmHg 85%
05:00 +16°C° 0.1 mm 2 m/s 648 mmHg 85%
06:00 +17°C° 0.2 mm 3 m/s 648 mmHg 80%
07:00 +18°C° 0.2 mm 4 m/s 648 mmHg 75%
08:00 +19°C° 0.2 mm 5 m/s 648 mmHg 70%
09:00 +21°C° 0.1 mm 6 m/s 649 mmHg 64%
10:00 +22°C° 0.1 mm 6 m/s 649 mmHg 57%
11:00 +23°C° 0.1 mm 7 m/s 649 mmHg 51%
12:00 +22°C° 0.9 mm 6 m/s 648 mmHg 55%
13:00 +21°C° 0.9 mm 6 m/s 648 mmHg 59%
14:00 +19°C° 0.9 mm 5 m/s 647 mmHg 64%
15:00 +19°C° 1.7 mm 4 m/s 647 mmHg 65%
16:00 +18°C° 1.7 mm 4 m/s 647 mmHg 66%
17:00 +18°C° 1.7 mm 3 m/s 647 mmHg 67%
18:00 +17°C° 0.9 mm 3 m/s 647 mmHg 73%
19:00 +16°C° 0.9 mm 2 m/s 647 mmHg 79%
20:00 +16°C° 0.9 mm 2 m/s 647 mmHg 85%
21:00 +16°C° 0.9 mm 2 m/s 648 mmHg 86%
22:00 +16°C° 0.9 mm 2 m/s 648 mmHg 86%
23:00 +15°C° 0.9 mm 2 m/s 649 mmHg 86%

5 Novembre, Jeudi

Heure Température Précipitation Vent Pression Humidité
00:00 +15°C° 0 mm 2 m/s 648 mmHg 85%
01:00 +14°C° 0 mm 3 m/s 648 mmHg 84%
02:00 +14°C° 0 mm 3 m/s 648 mmHg 84%
03:00 +14°C° 0 mm 3 m/s 648 mmHg 85%
04:00 +13°C° 0 mm 3 m/s 648 mmHg 86%
05:00 +13°C° 0 mm 3 m/s 647 mmHg 87%
06:00 +14°C° 0 mm 3 m/s 648 mmHg 81%
07:00 +16°C° 0 mm 3 m/s 648 mmHg 74%
08:00 +18°C° 0 mm 3 m/s 649 mmHg 67%
09:00 +19°C° 0 mm 3 m/s 649 mmHg 61%
10:00 +21°C° 0 mm 3 m/s 649 mmHg 56%
11:00 +22°C° 0 mm 3 m/s 649 mmHg 50%
12:00 +23°C° 0.3 mm 4 m/s 649 mmHg 50%
13:00 +23°C° 0.3 mm 4 m/s 648 mmHg 50%
14:00 +23°C° 0.3 mm 5 m/s 648 mmHg 49%
15:00 +23°C° 0.4 mm 5 m/s 648 mmHg 49%
16:00 +25°C° 0.4 mm 5 m/s 647 mmHg 48%
17:00 +24°C° 0.4 mm 6 m/s 647 mmHg 48%
18:00 +23°C° 0.1 mm 5 m/s 647 mmHg 49%
19:00 +22°C° 0.1 mm 4 m/s 647 mmHg 51%
20:00 +21°C° 0.1 mm 3 m/s 647 mmHg 53%
21:00 +20°C° 0 mm 3 m/s 647 mmHg 58%
22:00 +19°C° 0 mm 2 m/s 647 mmHg 62%
23:00 +19°C° 0 mm 1 m/s 647 mmHg 67%
Voir plus

Nous avons besoin de votre consentement

Meteoprog et ses fournisseurs de services peuvent stocker et accéder à des données personnelles telles que des cookies, des identifiants d'appareils ou d'autres technologies similaires sur votre appareil et traiter ces données pour personnaliser le contenu et les publicités, ainsi que pour fournir des fonctionnalités de médias sociaux et analyser le trafic.

  • Stocker et/ou accéder à des informations sur votre appareil

    Des cookies, des identifiants d'appareils ou d'autres informations peuvent être stockés ou accessibles sur votre appareil aux fins indiquées ci-dessus.

  • Annonces et contenus personnalisés, mesure des annonces et des contenus, connaissance de l'audience et développement de produits

    Les annonces et le contenu peuvent être personnalisés en fonction d'un profil. D'autres données peuvent être ajoutées pour mieux personnaliser les annonces et le contenu. Les performances des publicités et du contenu peuvent être mesurées. Il est possible d'obtenir des informations sur le public qui a vu les publicités et le contenu. Ces données peuvent être utilisées pour développer ou améliorer l'expérience de l'utilisateur, les systèmes et les logiciels.

En cliquant sur "J'accepte", vous autorisez l'utilisation de cookies, des identifiants d'appareils, des balises web ou d'autres technologies similaires. Vos paramètres peuvent être modifiés dans le navigateur de votre appareil.

Dans certains cas, des intérêts légitimes peuvent être invoqués plutôt qu'un consentement. Vous pouvez en savoir plus à ce sujet dans notre Politique de confidentialité et de cookies.